Terug naar catalogus

FENGYUN 1C DEB

ActiefSSO
NORAD 30882·DEBRIS·🇨🇳 China

Gelanceerd May 10, 1999 vanaf Taiyuan Satellite Launch Center

Loading…

Volgende Passages (komende 24 uur)

TLE

VersSource: Space-Track

Epoch: Sep 14, 2026, 10:03 UTC

1 30882U 99025AXU 26257.41940491  .00005924  00000-0  48844-3 0  9991
2 30882  97.9077 318.4171 0138068 211.6813 147.6043 14.92224751 37546

Volg FENGYUN 1C DEB in realtime met AllMySat

Download on the App Store